Tracking 20232 objects as of 18-Jan-2020
HD Live streaming from Space Station
objects crossing your sky now

METEOR 2-17 DEB

Track METEOR 2-17 DEB now!
10-day predictions


NORAD ID: 35365
Int'l Code: 1988-005Z
Perigee: 920.5 km
Apogee: 936.6 km
Inclination: 82.5 °
Period: 103.4 minutes
Semi major axis: 7299 km
RCS: 0.0068 m2 (small)
Launch date: January 30, 1988
Source: Commonwealth of Independent States (former USSR) (CIS)
Launch site: PLESETSK MISSILE AND SPACE COMPLEX (PKMTR)

Note: This is SATELLITE DEBRIS
aabbcc
Your satellite tracking list
Your tracking list is empty




NASA's NSSDC Master Catalog

Two Line Element Set (TLE):
1 35365U 88005Z   20014.70127808  .00000239  00000-0  17502-3 0  9995
2 35365  82.5216   3.6196 0011055  76.9094  98.1975 13.92070627605388
Source of the keplerian elements: AFSPC